sat.trackr.live / text

‹ back to catalog

KINEIS-2C

NORAD 62929 · 2025-028B

PAYLOAD ACTIVE UNKNOWN

§ Identity

Operator
Country
FR
Launch date
2025-02-08
Launch site
RLLB
Launch vehicle
Mass (kg)
RCS (m²)

External: N2YO · Heavens-Above · Gunter

§ Orbital elements

Epoch: 2026-05-25T03:52:58.166976Z

Period
97.74 min
Inclination
98.0954°
Eccentricity
0.0001370
Mean motion
14.73298433 rev/d
Perigee alt
649.6 km
Apogee alt
651.5 km
Semi-major
7,028.7 km
B*
1.5820e-4
RAAN
199.5725°
Arg perigee
14.7496°
Mean anomaly
345.3751°
Rev number
6,922

§ Raw data

KINEIS-2C1 62929U 25028B   26145.16178434  .00000972  00000+0  15820-3 0  99932 62929  98.0954 199.5725 0001370  14.7496 345.3751 14.73298433 69226

JSON: /api/v1/satellites/62929 · /tle

For live sub-satellite position, see the globe view (requires WebGL).

§ Visibility from observer

Set your observer location to see the next 7 days of passes ≥ 10°. The values pass through the URL so the page stays shareable.

No JS? Fill the form by hand. The geolocation button needs JavaScript.

§ Radio — SatNOGS DB

ModeDescriptionDownlinkUplink
FM S-band telemetry 2.261 GHz
FM S-band telemetry 2.265 GHz
FM Telemetry 400.645 MHz

3 transmitters · refreshed weekly from db.satnogs.org